Zurück zum Katalog

STARLINK-4677

AktivKommunikationVLEO
NORAD 53600·PAYLOAD·🇺🇸 United States

Gestartet Aug 28, 2022 von Cape Canaveral Space Force Station

Loading…

Nächste Überflüge (nächste 24 Stunden)

TLE

AktuellSource: CelesTrak SupGP

Epoche: Sep 15, 2026, 01:47 UTC

1 53600C 22104N   26258.07479167  .00032486  00000+0  96026-3 0  2583
2 53600  53.1582 101.2860 0001544  74.9574  38.8814 15.34358939    11

Verfolge STARLINK-4677 in Echtzeit mit AllMySat

Download on the App Store